Simultaneous Nadir Overpasses (SNOs) Predictions

Prediction of SNOs between NOAA-20 and AQUA Satellite Orbit:

Table of predicted SNOs for the next 14.0 days since TLE Epoch: 3/13/2021
Index Date (NOAA-20) Time (NOAA-20) Lat,Lon (NOAA-20) SZA (NOAA-20 ) Date (AQUA) Time (AQUA) Lat,Lon (AQUA) SZA (AQUA ) Distance(km) Time Diff (sec)
1 03/15/2021 05:56:33 74.57, -34.18 101.32 03/15/2021 05:57:22 74.58, -34.11 101.25 2.34 49
2 03/15/2021 06:46:49 -75.94, 137.23 80.32 03/15/2021 06:46:21 -75.94, 137.26 80.30 0.90 28
3 03/17/2021 22:13:16 75.08, 83.01 99.65 03/17/2021 22:13:40 75.08, 83.06 99.61 1.60 24
4 03/17/2021 23:03:36 -76.28,-105.79 81.82 03/17/2021 23:02:43 -76.28,-105.79 81.77 0.20 53
5 03/20/2021 13:40:56 -70.59, 21.81 76.46 03/20/2021 13:42:10 -70.51, 22.26 76.58 19.38 74
6 03/20/2021 14:30:00 75.57,-159.70 97.98 03/20/2021 14:29:59 75.58,-159.70 97.98 0.18 1
7 03/20/2021 15:17:17 -81.27, 66.62 93.67 03/20/2021 15:16:04 -81.83, 66.59 93.40 62.48 73
8 03/23/2021 05:56:33 -74.51, 145.69 81.84 03/23/2021 05:57:23 -74.52, 145.74 81.90 1.86 50
9 03/23/2021 06:46:44 76.06, -42.31 96.32 03/23/2021 06:46:18 76.05, -42.39 96.36 2.22 26
10 03/25/2021 22:13:14 -75.16, -96.72 83.67 03/25/2021 22:13:39 -75.16, -96.75 83.68 0.78 25



Historial Predications of SNOs between NOAA-20 and AQUA
